Tracking 19909 objects as of 22-Oct-2019
HD Live streaming from Space Station
objects crossing your sky now

DELTA 1 DEB

Track DELTA 1 DEB now!
10-day predictions


NORAD ID: 14883
Int'l Code: 1973-086GS
Perigee: 1,492.2 km
Apogee: 1,887.6 km
Inclination: 102.0 °
Period: 120.0 minutes
Semi major axis: 8060 km
RCS: 0.0421 m2 (small)
Launch date: November 6, 1973
Source: United States (US)
Launch site: AIR FORCE WESTERN TEST RANGE (AFWTR)

Note: This is SATELLITE DEBRIS
aabbcc
Your satellite tracking list
Your tracking list is empty




NASA's NSSDC Master Catalog

Two Line Element Set (TLE):
1 14883U 73086GS  19294.00680517 -.00000204  00000-0 -18845-2 0  9996
2 14883 101.9836 304.5016 0245267  22.0518   4.0599 11.99584438336020
Source of the keplerian elements: AFSPC